Location: Cactus School
(34.5700°N, 118.0931°W)
Time: 17:04:15
(UTC-08:00)

A-11 Canister half - Visible Passes

Search period start: 19 November 2019 00:00
Search period end: 29 November 2019 00:00
Orbit: 1514 x 1686 km, 47.2° (Epoch: 18 November)

Date Brightness Start Highest point End Pass type
(mag) Time Alt. Az. Time Alt. Az. Time Alt. Az.
19 Nov 9.4 17:53:28 10° WSW 18:03:26 64° NNW 18:11:30 18° NE visible
19 Nov 9.8 20:00:48 10° WNW 20:09:42 40° N 20:09:42 40° N visible
19 Nov 11.3 22:07:24 10° NW 22:07:54 12° NW 22:07:54 12° NW visible
20 Nov 9.4 17:30:27 10° WSW 17:40:25 66° NNW 17:49:49 13° NE visible
20 Nov 9.7 19:37:42 10° WNW 19:47:08 41° N 19:48:01 40° N visible
20 Nov 11.0 21:44:24 10° NW 21:46:13 17° NW 21:46:13 17° NW visible
21 Nov 9.4 17:07:26 10° WSW 17:17:26 69° NNW 17:27:37 10° NE visible
21 Nov 9.7 19:14:37 10° WNW 19:24:03 41° N 19:26:19 37° NNE visible
21 Nov 10.8 21:21:24 10° NW 21:24:31 22° NW 21:24:31 22° NW visible
22 Nov 9.8 18:51:32 10° WNW 19:00:58 41° N 19:04:36 32° NNE visible
22 Nov 10.5 20:58:24 10° NW 21:02:48 27° NW 21:02:48 27° NW visible
23 Nov 9.8 18:28:26 10° WNW 18:37:54 42° N 18:42:54 27° NE visible
23 Nov 10.2 20:35:23 10° NW 20:41:05 33° NNW 20:41:05 33° NNW visible
24 Nov 9.8 18:05:22 10° W 18:14:50 43° N 18:21:11 22° NE visible
24 Nov 9.9 20:12:22 10° WNW 20:19:23 39° NNW 20:19:23 39° NNW visible
25 Nov 9.8 17:42:16 10° W 17:51:44 43° NNW 17:59:30 16° NE visible
25 Nov 9.7 19:49:22 10° WNW 19:57:41 43° N 19:57:41 43° N visible
25 Nov 11.2 21:54:54 10° NW 21:55:53 14° NW 21:55:53 14° NW visible
26 Nov 9.8 17:19:12 10° W 17:28:41 44° NNW 17:37:49 12° NE visible
26 Nov 9.6 19:26:21 10° WNW 19:35:56 44° NNE 19:36:01 44° NNE visible
26 Nov 10.9 21:31:55 10° NW 21:34:12 19° NW 21:34:12 19° NW visible
27 Nov 9.8 16:56:08 10° W 17:05:37 45° NNW 17:15:18 10° ENE visible
27 Nov 9.6 19:03:19 10° WNW 19:12:52 43° N 19:14:21 41° NNE visible
27 Nov 10.6 21:08:57 10° NW 21:12:33 26° NW 21:12:33 26° NW visible
28 Nov 9.6 18:40:18 10° WNW 18:49:47 42° N 18:52:44 35° NE visible
28 Nov 10.2 20:45:59 10° NW 20:50:56 34° NW 20:50:56 34° NW visible
